Regional Weather Roundup
Issued by NWS

Home | Current Version | Previous Version | Graphics & Text | Print | Product List | Glossary On
Versions: 1 2 3 4 5 6 7 8 9 10 11 12 13 14 15 16 17 18 19 20 21 22 23 24 25 26 27 28 29 30 31 32 33 34 35 36 37 38 39 40 41 42 43 44 45 46 47 48 49 50
000
ASUS43 KOAX 251110
RWRNE

WEATHER ROUNDUP FOR NEBRASKA
NATIONAL WEATHER SERVICE OMAHA NE
600 AM CDT SAT OCT 25 2014

NOTES: SATELLITE DATA IS BEING USED TO AUGMENT CLOUD COVER ABOVE
       12000 FEET.
       "FAIR" INDICATES FEW OR NO CLOUDS BELOW 12,000 FEET WITH NO
       SIGNIFICANT WEATHER AND/OR OBSTRUCTIONS TO VISIBILITY.

  * THESE STATIONS DO NOT REPORT WEATHER SUCH AS RAIN...SNOW OR FOG.

NEZ001>004-019>022-054>056-251200-
NEBRASKA PANHANDLE

CITY           SKY/WX    TMP DP  RH WIND       PRES   REMARKS
SCOTTSBLUFF    CLEAR     45  32  60 N8        30.16R
ALLIANCE       CLEAR     37  33  85 N7        30.15S WCI  32
CHADRON        CLEAR     31  29  92 W5        30.17S WCI  26
KIMBALL        CLEAR     40  30  67 W6        30.16S
SIDNEY         CLEAR     40  30  67 NW9       30.14F WCI  34
$$

NEZ057>060-069>072-079>082-251200-
SOUTHWEST NEBRASKA

CITY           SKY/WX    TMP DP  RH WIND       PRES   REMARKS
NORTH PLATTE   CLEAR     35  32  88 NW3       30.09R
IMPERIAL       CLEAR     43  33  68 NW5       30.10R
LEXINGTON      CLEAR     39  37  91 NW5       30.08R
MCCOOK         CLEAR     40  35  83 SW6       30.08R
OGALLALA       CLEAR     39  35  86 W3        30.10S
$$

NEZ005>010-023>029-035>040-094-251200-
NORTH CENTRAL NEBRASKA

CITY           SKY/WX    TMP DP  RH WIND       PRES   REMARKS
VALENTINE      CLEAR     45  33  63 N3        30.13S
AINSWORTH      CLEAR     42  34  73 E3        30.13R
BROKEN BOW     CLEAR     47  41  80 N9        30.09R
O`NEILL        CLEAR     49  39  68 N8        30.13R
ORD            CLEAR     41  38  89 NW6       30.09S
THEDFORD       CLEAR     39  34  84 W3        30.12R
$$

NEZ041-046>049-061>064-073>077-083>087-251200-
SOUTH CENTRAL NEBRASKA

CITY           SKY/WX    TMP DP  RH WIND       PRES   REMARKS
GRAND ISLAND   CLEAR     42  39  89 CALM      30.08R
AURORA         CLEAR     45  42  89 N3        30.08R
HASTINGS       CLEAR     43  40  89 N5        30.06S
HEBRON         CLEAR     44  42  93 CALM      30.05S FOG
HOLDREGE       CLEAR     42  40  91 CALM      30.07R
KEARNEY *      CLEAR     45  39  81 NW8       30.08R
YORK           CLEAR     45  43  93 N8        30.07R
$$

NEZ011>018-030>034-042>045-251200-
NORTHEAST NEBRASKA

CITY           SKY/WX    TMP DP  RH WIND       PRES   REMARKS
NORFOLK        CLEAR     46  40  79 W7        30.08R
ALBION         CLEAR     42  38  84 NW7       30.09S
BLAIR          CLEAR     56  45  65 N8        30.07R
COLUMBUS *     CLEAR     43  37  81 CALM      30.08S
FREMONT        CLEAR     45  43  93 CALM      30.06S
TEKAMAH        CLEAR     44  41  89 N8        30.06R
WAYNE          CLEAR     42  39  89 CALM      30.09S
$$

NEZ050>053-065>068-078-088>093-251200-
SOUTHEAST NEBRASKA

CITY           SKY/WX    TMP DP  RH WIND       PRES   REMARKS
LINCOLN        CLEAR     46  43  89 NW3       30.07R
OMAHA EPPLEY   CLEAR     50  47  89 N9        30.05R
BEATRICE       CLEAR     43  42  95 CALM      30.05R
FALLS CITY     FOG       48  48 100 NW5       30.04R VSB 3/4
NEBRASKA CITY  CLEAR     52  46  79 NW3       30.05R
PLATTSMOUTH    CLEAR     50  46  85 NW5       30.05R
$$

NEZ044-045-051>053-067-251200-
OMAHA AREA

CITY           SKY/WX    TMP DP  RH WIND       PRES   REMARKS
OMAHA EPPLEY   CLEAR     50  47  89 N9        30.05R
BLAIR          CLEAR     56  45  65 N8        30.07R
FREMONT        CLEAR     45  43  93 CALM      30.06S
MILLARD        CLEAR     48  46  95 CALM      30.05R FOG
OFFUTT AFB     CLEAR     47  47 100 W3        30.04R
PLATTSMOUTH    CLEAR     50  46  85 NW5       30.05R
WAHOO          FAIR      47  43  85 N5        30.06R
$$



USA.gov is the U.S. government's official web portal to all federal, state and local government web resources and services.